C4984 Weather Reports


time (UTC)temp
C
wind
direction
speed
KPH
gust
KPH
rain 1hr
cm
rain 24hr
cm
rain mn
cm
humidity
%
barometer
mb
20260508010417 12 148 0.0 0.0 0.00 1.40 1.40 97 1006.2
20260508003100 12 148 0.0 0.0 0.00 1.40 1.40 97 1005.9
20260508002115 12 148 0.0 0.0 0.00 1.40 1.40 97 1005.8
20260508001132 12 148 0.0 0.0 0.00 1.40 1.40 97 1005.8
20260508000059 12 148 0.0 0.0 0.00 1.40 1.40 97 1005.8
20260507235041 12 143 0.0 0.0 0.00 1.40 1.40 97 1005.6
20260507234103 12 163 0.0 0.0 0.00 1.40 1.40 97 1005.2
20260507233037 12 155 0.0 3.2 0.00 1.40 1.40 97 1005.2
20260507230855 12 356 0.0 3.2 0.00 1.40 1.40 97 1004.7
20260507224753 12 356 1.6 4.8 0.00 1.40 1.40 98 1004.7
20260507223737 12 354 0.0 3.2 0.00 1.40 1.40 98 1004.9
20260507222730 12 1 0.0 4.8 0.00 1.40 1.40 98 1005.3
20260507221716 12 4 0.0 4.8 0.00 1.40 1.40 98 1005.3
20260507213228 12 349 0.0 4.8 0.00 1.40 1.40 98 1004.7
20260507212217 12 359 0.0 4.8 0.00 1.40 1.40 98 1004.7
20260507211201 12 349 0.0 3.2 0.00 1.40 1.40 98 1004.7
20260507210127 12 356 0.0 4.8 0.00 1.40 1.40 98 1004.7
20260507205122 12 347 1.6 4.8 0.00 1.40 1.40 98 1004.2
20260507204049 12 346 1.6 4.8 0.00 1.40 1.40 98 1004.2
20260507203018 12 359 1.6 4.8 0.00 1.40 1.40 98 1004.2
20260507202040 12 356 1.6 3.2 0.00 1.40 1.37 98 1004.3
20260507201020 12 110 1.6 4.8 0.00 1.40 1.37 98 1004.7
20260507194838 12 141 1.6 8.0 0.00 1.40 1.37 98 1004.7
20260507193838 12 349 3.2 8.0 0.00 1.40 1.37 98 1004.8
20260507192843 12 0 1.6 4.8 0.00 1.37 1.35 98 1004.7
20260507191820 12 122 0.0 4.8 0.00 1.37 1.35 98 1004.7
20260507190758 12 0 1.6 6.4 0.00 1.37 1.35 98 1004.1
20260507185735 12 1 1.6 6.4 0.00 1.37 1.35 98 1004.0
20260507184733 13 329 1.6 6.4 0.00 1.37 1.35 98 1004.0
20260507183721 13 342 1.6 9.7 0.00 1.35 1.32 98 1003.9
20260507182727 13 0 3.2 9.7 0.00 1.35 1.32 98 1004.0
20260507181749 13 274 1.6 8.0 0.00 1.35 1.32 98 1004.0
20260507180812 13 359 1.6 11.3 0.00 1.35 1.32 98 1004.1
20260507175747 13 7 3.2 11.3 0.00 1.32 1.30 98 1004.8
20260507173601 13 347 1.6 9.7 0.00 1.32 1.30 98 1004.1
20260507172528 13 349 3.2 12.9 0.00 1.30 1.30 98 1003.6
20260507171500 13 338 4.8 12.9 0.00 1.30 1.30 98 1003.6
20260507165306 14 359 4.8 12.9 0.00 1.30 1.27 97 1003.6
20260507164232 15 353 3.2 6.4 0.00 1.27 1.24 97 1004.4
20260507162111 17 295 1.6 16.1 0.08 1.24 1.22 97 1004.0
20260507155855 18 64 0.0 3.2 0.08 1.22 1.22 99 1003.8
20260507154838 18 214 0.0 1.6 0.10 1.22 1.19 99 1003.8
20260507153901 18 311 0.0 0.0 0.10 1.19 1.17 99 1003.8
20260507152850 19 198 0.0 1.6 0.10 1.17 1.14 99 1003.9
20260507151817 19 77 0.0 0.0 0.13 1.14 1.12 99 1003.9
20260507150840 19 27 0.0 0.0 0.15 1.12 1.12 99 1003.9
20260507145854 18 23 0.0 0.0 0.15 1.12 1.09 99 1003.9
20260507144904 18 23 0.0 0.0 0.15 1.07 1.07 99 1003.9
20260507143848 18 12 0.0 3.2 0.10 1.04 1.02 99 1003.9
20260507142901 19 327 0.0 3.2 0.08 1.02 1.02 99 1003.9
20260507141912 19 159 0.0 1.6 0.10 1.02 0.99 99 1003.9
20260507140936 18 122 0.0 1.6 0.08 0.99 0.97 99 1004.3
20260507134819 18 61 0.0 1.6 0.08 0.94 0.94 99 1004.4
20260507131558 18 80 0.0 3.2 0.00 0.91 0.89 99 1004.2
20260507130530 18 82 0.0 0.0 0.00 0.91 0.89 99 1004.3
20260507125503 18 57 0.0 1.6 0.00 0.91 0.89 99 1004.3
20260507124457 18 10 0.0 0.0 0.00 0.91 0.89 99 1004.3
20260507123426 18 73 0.0 0.0 0.00 0.91 0.89 99 1004.4
20260507121316 18 184 0.0 0.0 0.18 0.91 0.89 99 1004.5
20260507120320 18 184 0.0 0.0 0.30 0.86 0.86 99 1004.5
20260507114129 18 222 0.0 0.0 0.46 0.74 0.74 99 1004.9
20260507113150 18 222 0.0 0.0 0.58 0.66 0.66 99 1004.9
20260507112154 18 65 0.0 0.0 0.71 0.56 0.56 98 1004.9
20260507105959 18 94 0.0 0.0 0.41 0.46 0.43 98 1004.4
20260507104927 18 94 0.0 0.0 0.38 0.36 0.36 98 1004.3
20260507103936 18 94 0.0 0.0 0.00 0.30 0.28 98 1004.5
20260507102929 17 94 0.0 0.0 0.00 0.28 0.28 98 1004.5
20260507100856 17 94 0.0 0.0 0.00 0.28 0.28 98 1004.4
20260507095842 17 94 0.0 0.0 0.00 0.28 0.28 98 1004.4
20260507092544 17 94 0.0 0.0 0.00 0.28 0.28 98 1004.4
20260507091509 18 65 0.0 3.2 0.00 0.28 0.28 98 1004.4
20260507090450 18 62 0.0 4.8 0.00 0.28 0.28 98 1004.8
20260507085430 18 125 0.0 4.8 0.08 0.28 0.25 98 1004.6
20260507084417 18 105 0.0 4.8 0.25 0.25 0.25 98 1004.6
20260507083407 18 84 0.0 3.2 0.00 0.23 0.20 98 1005.1
20260507082407 18 51 0.0 1.6 0.00 0.23 0.20 98 1004.9
20260507081419 17 105 0.0 1.6 0.00 0.23 0.20 98 1004.9
20260507080411 18 105 0.0 1.6 0.00 0.23 0.20 98 1005.2
20260507074240 18 142 0.0 0.0 0.00 0.23 0.20 97 1005.4
20260507073241 18 142 0.0 1.6 0.00 0.23 0.20 97 1005.4
20260507072251 18 289 0.0 0.0 0.00 0.20 0.18 97 1005.4
20260507071304 18 289 0.0 1.6 0.00 0.20 0.18 97 1005.4
20260507065215 18 175 0.0 4.8 0.00 0.20 0.18 97 1006.1
20260507064234 18 127 0.0 3.2 0.00 0.20 0.18 97 1006.1
20260507063252 18 6 0.0 1.6 0.00 0.20 0.18 97 1006.1
20260507062221 18 71 0.0 0.0 0.00 0.20 0.18 97 1006.0
20260507061202 18 79 0.0 1.6 0.00 0.20 0.18 97 1006.0
20260507055038 18 25 0.0 0.0 0.08 0.20 0.18 96 1006.1
20260507054040 18 25 0.0 3.2 0.20 0.20 0.18 96 1006.3
20260507051909 18 58 0.0 0.0 0.08 0.15 0.13 95 1006.7
20260507050845 18 140 0.0 1.6 0.18 0.15 0.13 95 1006.0
20260507045840 18 192 0.0 12.9 0.38 0.10 0.10 94 1006.8
20260507044849 19 338 1.6 12.9 0.23 0.08 0.05 94 1006.8
20260507043814 19 18 0.0 6.4 0.00 0.03 0.00 94 1007.9
20260507042834 19 112 0.0 1.6 0.00 0.03 0.00 94 1007.7
20260507041815 19 32 0.0 3.2 0.00 0.00 0.00 93 1007.7
20260507040833 19 195 0.0 0.0 0.00 0.00 0.00 93 1007.1
20260507035827 19 161 0.0 0.0 0.00 0.00 0.00 92 1006.5
20260507034756 19 64 0.0 1.6 0.00 0.00 0.00 91 1006.5
20260507033743 20 65 0.0 0.0 0.00 0.00 0.00 91 1006.9
20260507032714 20 81 0.0 0.0 0.00 0.00 0.00 90 1006.9
20260507031705 20 1 0.0 0.0 0.00 0.00 0.00 89 1006.9
20260507030720 20 278 0.0 1.6 0.00 0.00 0.00 89 1006.7
20260507025651 20 6 0.0 1.6 0.00 0.00 0.00 89 1006.4
20260507024701 20 82 0.0 1.6 0.00 0.00 0.00 89 1006.4
20260507023659 20 49 0.0 0.0 0.00 0.00 0.00 90 1006.4
20260507022644 20 115 0.0 1.6 0.00 0.00 0.00 90 1006.1
20260507021618 20 51 0.0 1.6 0.00 0.00 0.00 90 1006.1
20260507020636 20 51 0.0 0.0 0.00 0.00 0.00 90 1006.4
20260507015646 20 51 0.0 0.0 0.00 0.00 0.00 90 1006.4
20260507014632 20 51 0.0 0.0 0.00 0.00 0.00 90 1006.4
20260507011436 20 8 0.0 0.0 0.00 0.00 0.00 89 1006.3